[[{"header":{"parameterUnit":"m.s-1","parameterCategory":1,"la1":30.2991,"la2":30.254,"lo1":-89.0895,"lo2":-89.0444,"dy":0.0017,"dx":0.0017,"nx":28,"ny":28,"refTime":"2025-12-18T09:00:00:Z","depth":0,"parameterNumber":2,"parameterNumberName":"U-component_of_WINDS"},"data":[0,0,0,0,0,0,0,0,0,0,0,0,0,0,0,0,0,0,0,0,0,0,0,0,0,0,0,0,0,0,0,0,0,0,0,0,0,0,0,0,0,0,0,0,0,0,0,0,0,0,0,0,0,0,0,0,0,0,1.3852,1.3852,0,1.388,1.388,1.388,1.3882,1.3882,1.3882,1.3881,1.3909,1.391,1.3911,0,0,0,0,0,0,0,0,0,0,0,0,0,1.38,1.3801,1.3852,1.3852,1.3853,1.388,1.388,1.3881,1.3882,1.3882,1.3882,1.3881,1.3909,1.391,1.3911,0,0,0,0,0,0,0,0,0,0,0,0,0,1.3825,1.3801,1.3852,1.3857,1.3857,1.388,1.388,1.3881,1.3882,1.3882,1.3882,1.3881,1.3908,1.391,1.3911,1.393,0,0,1.3916,1.3917,0,0,0,0,0,0,0,0,1.3823,1.3827,1.3856,1.3856,1.3857,1.3877,1.3872,1.3897,1.3883,1.3873,1.3881,1.3881,1.3899,1.3901,1.3907,1.3932,1.3933,1.3916,1.3917,1.3918,1.3918,0,0,0,0,0,0,0,1.3822,1.3825,1.3863,1.3856,1.3857,1.3858,1.3861,1.3877,1.3888,1.3874,1.3874,1.3877,1.3899,1.3906,1.3908,1.3933,1.3916,1.3918,1.3919,1.3919,1.3975,1.3976,0,0,0,0,0,0,1.3819,1.3824,1.3862,1.3864,1.3839,1.3859,1.3862,1.3871,1.3888,1.389,1.3878,1.3877,1.3904,1.3906,1.3909,1.3933,1.3918,1.3919,1.392,1.3975,1.3976,1.3976,0,0,0,0,0,0,1.3818,1.3822,1.3861,1.3844,1.3849,1.386,1.387,1.3872,1.3879,1.3891,1.3893,1.3882,1.3903,1.3907,1.3925,1.3934,1.392,1.3921,1.3974,1.3975,1.3976,1.398,0,0,0,0,0,0,1.3816,1.3822,1.3829,1.3844,1.385,1.3877,1.3871,1.3873,1.3881,1.3881,1.3896,1.3898,1.3903,1.3923,1.3927,1.3935,1.3923,1.3973,1.3975,1.3976,1.3979,1.398,1.3982,0,0,0,0,0,1.3815,1.3829,1.3829,1.3834,1.3859,1.3877,1.388,1.3886,1.3882,1.3889,1.3898,1.3897,1.3932,1.3925,1.3929,1.3938,1.3973,1.3974,1.3975,1.3978,1.398,1.3982,0,0,0,0,0,0,1.3814,1.3831,1.3832,1.3851,1.3863,1.3877,1.3887,1.3888,1.3901,1.39,1.3907,1.391,1.3928,1.3935,1.3927,1.3958,1.3952,1.3954,1.3953,1.3955,1.3956,1.3954,1.3924,0,0,0,0,0,1.3816,1.3829,1.3843,1.3859,1.3865,1.3875,1.3883,1.3887,1.3899,1.3904,1.3913,1.3925,1.3938,1.3947,1.396,1.398,1.3984,1.3989,1.399,1.3992,1.3993,1.4005,1.4007,1.398,1.398,1.398,0,0,1.382,1.3831,1.3839,1.3859,1.3869,1.3882,1.3879,1.3893,1.3904,1.3906,1.3924,1.3931,1.3945,1.3964,1.3973,1.3971,1.4002,1.3993,1.3994,1.3995,1.4006,1.4009,1.4011,1.3981,1.3981,1.3981,0,0,1.3835,1.3845,1.3859,1.3869,1.3883,1.389,1.3894,1.3909,1.3914,1.3932,1.3934,1.3947,1.397,1.398,1.3988,1.4008,1.4009,1.4012,1.402,1.4032,1.4034,1.4036,1.4043,1.4046,1.4014,1.4014,1.4014,0,1.3838,1.3859,1.3866,1.3881,1.389,1.3893,1.3908,1.3917,1.3935,1.3942,1.3939,1.3969,1.3978,1.4,1.4005,1.4012,1.4016,1.401,1.4033,1.4035,1.4037,1.4044,1.4047,1.4015,1.4014,1.4014,1.4014,0,1.3863,1.3877,1.3887,1.3905,1.3915,1.393,1.394,1.3949,1.3953,1.396,1.3979,1.3991,1.4007,1.4012,1.4015,1.4035,1.4033,1.4032,1.4026,1.404,1.4046,1.4049,1.4015,1.4015,1.4015,1.4015,0,0,1.3876,1.3899,1.3902,1.3911,1.3928,1.3939,1.3955,1.3971,1.3979,1.3992,1.4005,1.4025,1.4024,1.4034,1.4038,1.4048,1.4064,1.4045,1.4046,1.4048,1.4087,1.4088,1.4091,1.4065,1.4065,1.4066,1.4086,0,1.3893,1.392,1.3927,1.395,1.3964,1.3969,1.3982,1.3994,1.4002,1.4015,1.4023,1.4037,1.4035,1.4041,1.4051,1.406,1.4072,1.4059,1.4077,1.4077,1.4073,1.4094,1.4095,1.4113,1.4088,1.4089,1.4089,0,1.3915,1.3929,1.3953,1.397,1.3976,1.3988,1.4004,1.4016,1.403,1.4035,1.4046,1.405,1.4067,1.4061,1.4084,1.4075,1.4083,1.4089,1.4089,1.4091,1.4084,1.4096,1.4118,1.4121,1.4093,1.4093,1.4093,0,1.3922,1.3947,1.3965,1.3973,1.3992,1.4,1.4009,1.4023,1.4032,1.4046,1.4053,1.4069,1.4077,1.4089,1.4098,1.4093,1.412,1.4115,1.4125,1.4124,1.4129,1.4129,1.4153,1.4136,1.4135,1.4135,1.4135,0,1.3939,1.3954,1.3969,1.398,1.3997,1.4006,1.4023,1.4031,1.4044,1.4057,1.4062,1.4074,1.4085,1.4098,1.4105,1.4123,1.4127,1.4132,1.4133,1.4131,1.413,1.4136,1.4134,1.4136,1.4136,1.4136,1.4136,0,1.395,1.396,1.398,1.3998,1.4002,1.4014,1.4029,1.404,1.4049,1.4065,1.407,1.4083,1.4099,1.4109,1.413,1.4135,1.4155,1.4156,1.415,1.415,1.416,1.4158,1.4188,1.4192,1.4172,1.4172,1.4172,0,1.396,1.3971,1.399,1.4,1.4008,1.4023,1.4033,1.4043,1.4053,1.4071,1.408,1.4098,1.4111,1.4138,1.4149,1.4165,1.4167,1.4176,1.4169,1.4167,1.4167,1.4166,1.4167,1.4177,1.4177,1.4177,1.4177,0,1.3976,1.3981,1.3995,1.4012,1.4024,1.4038,1.4051,1.4059,1.4071,1.4082,1.41,1.4111,1.4133,1.4149,1.4167,1.4176,1.4179,1.418,1.4183,1.418,1.4176,1.4178,1.4153,1.4179,1.4179,1.4179,1.4178,1.4178,1.3986,1.3997,1.4012,1.4029,1.404,1.4053,1.4064,1.4075,1.4089,1.4108,1.4113,1.4131,1.4147,1.4171,1.418,1.4195,1.4193,1.4198,1.4199,1.4199,1.42,1.4175,1.4198,1.4198,1.4198,1.4198,1.4198,0,1.4003,1.4013,1.4028,1.4047,1.406,1.4063,1.4078,1.4089,1.4105,1.4119,1.4133,1.4153,1.417,1.4184,1.4201,1.421,1.4212,1.4214,1.4213,1.4216,1.42,1.4195,1.4213,1.4213,1.4213,1.4213,1.4213,1.4213,1.4013,1.4031,1.4038,1.4063,1.4074,1.4092,1.41,1.4112,1.4124,1.4146,1.416,1.4169,1.4183,1.4202,1.4218,1.4221,1.4227,1.423,1.4233,1.4218,1.4217,1.4215,1.4211,1.4231,1.4231,1.4248,1.4248,1.4248]},{"header":{"parameterUnit":"m.s-1","parameterCategory":1,"la1":30.2991,"la2":30.254,"lo1":-89.0895,"lo2":-89.0444,"dy":0.0017,"dx":0.0017,"nx":28,"ny":28,"refTime":"2025-12-18T09:00:00:Z","depth":0,"parameterNumber":3,"parameterNumberName":"V-component_of_WINDS"},"data":[0,0,0,0,0,0,0,0,0,0,0,0,0,0,0,0,0,0,0,0,0,0,0,0,0,0,0,0,0,0,0,0,0,0,0,0,0,0,0,0,0,0,0,0,0,0,0,0,0,0,0,0,0,0,0,0,0,0,-5.611,-5.6112,0,-5.6334,-5.6337,-5.6339,-5.6317,-5.6313,-5.631,-5.6306,-5.6535,-5.6544,-5.6553,0,0,0,0,0,0,0,0,0,0,0,0,0,-5.5661,-5.5669,-5.6109,-5.6112,-5.6115,-5.6334,-5.6337,-5.634,-5.6317,-5.6313,-5.6309,-5.6305,-5.6531,-5.6542,-5.6554,0,0,0,0,0,0,0,0,0,0,0,0,0,-5.5868,-5.5672,-5.6109,-5.613,-5.6134,-5.6333,-5.6337,-5.6341,-5.6318,-5.6313,-5.6308,-5.6303,-5.6528,-5.6541,-5.6555,-5.6747,0,0,-5.6598,-5.6604,0,0,0,0,0,0,0,0,-5.5856,-5.5884,-5.6124,-5.6129,-5.6134,-5.6292,-5.6262,-5.6477,-5.632,-5.6248,-5.6306,-5.63,-5.6458,-5.6477,-5.6531,-5.6758,-5.6767,-5.6599,-5.6608,-5.6614,-5.6618,0,0,0,0,0,0,0,-5.5842,-5.5874,-5.6198,-5.6128,-5.6134,-5.6129,-5.6152,-5.6303,-5.638,-5.6254,-5.6253,-5.628,-5.646,-5.6518,-5.6536,-5.6771,-5.6599,-5.6611,-5.662,-5.6625,-5.717,-5.7176,0,0,0,0,0,0,-5.5822,-5.5863,-5.6191,-5.6205,-5.5979,-5.6141,-5.6167,-5.6247,-5.6378,-5.6393,-5.6284,-5.6278,-5.6496,-5.652,-5.6544,-5.6781,-5.6614,-5.6627,-5.6635,-5.7164,-5.7171,-5.7178,0,0,0,0,0,0,-5.5813,-5.5852,-5.6182,-5.6034,-5.6075,-5.6154,-5.6244,-5.6254,-5.6312,-5.6401,-5.6414,-5.633,-5.6493,-5.6524,-5.6698,-5.6788,-5.6633,-5.6646,-5.7157,-5.7166,-5.7174,-5.7253,0,0,0,0,0,0,-5.58,-5.5849,-5.5922,-5.6036,-5.6083,-5.6332,-5.6249,-5.6262,-5.6336,-5.633,-5.6447,-5.6461,-5.6491,-5.6677,-5.6712,-5.6805,-5.6657,-5.7149,-5.7161,-5.7171,-5.7243,-5.7263,-5.7281,0,0,0,0,0,-5.5784,-5.5934,-5.5926,-5.5966,-5.6177,-5.6337,-5.6365,-5.6397,-5.6344,-5.6419,-5.6476,-5.6457,-5.6772,-5.6695,-5.6734,-5.6832,-5.7143,-5.7157,-5.7171,-5.7234,-5.7259,-5.7281,0,0,0,0,0,0,-5.5828,-5.5949,-5.5942,-5.6133,-5.6225,-5.6333,-5.6429,-5.6422,-5.6531,-5.6521,-5.6556,-5.6582,-5.6758,-5.6812,-5.6724,-5.7026,-5.6951,-5.6973,-5.6985,-5.701,-5.7029,-5.7014,-5.6668,0,0,0,0,0,-5.586,-5.598,-5.6079,-5.6238,-5.6285,-5.6349,-5.642,-5.6437,-5.6534,-5.6573,-5.6643,-5.6738,-5.6858,-5.6937,-5.7052,-5.7249,-5.7276,-5.7336,-5.7356,-5.7371,-5.7391,-5.7503,-5.7532,-5.7222,-5.7222,-5.7222,0,0,-5.5927,-5.6008,-5.6082,-5.6249,-5.6323,-5.6448,-5.6382,-5.6516,-5.6609,-5.6593,-5.6762,-5.6817,-5.6925,-5.7112,-5.7198,-5.7163,-5.7482,-5.7389,-5.74,-5.7412,-5.752,-5.7549,-5.7575,-5.7232,-5.723,-5.7228,0,0,-5.6114,-5.6186,-5.6328,-5.6404,-5.6517,-5.6559,-5.6593,-5.6704,-5.674,-5.691,-5.6902,-5.7013,-5.7218,-5.7297,-5.7364,-5.7583,-5.7571,-5.7619,-5.7722,-5.783,-5.7855,-5.7877,-5.7958,-5.7987,-5.7638,-5.7638,-5.7638,0,-5.6183,-5.6371,-5.6402,-5.6539,-5.6614,-5.6606,-5.6751,-5.6823,-5.6968,-5.702,-5.6978,-5.7239,-5.731,-5.7518,-5.7572,-5.7625,-5.7666,-5.7607,-5.7849,-5.7871,-5.7892,-5.797,-5.8,-5.7643,-5.7643,-5.7642,-5.7642,0,-5.6452,-5.6582,-5.6683,-5.6826,-5.6912,-5.7052,-5.7105,-5.7189,-5.7199,-5.7245,-5.742,-5.7506,-5.7641,-5.769,-5.77,-5.7901,-5.7876,-5.7841,-5.7766,-5.7926,-5.8001,-5.803,-5.7651,-5.7649,-5.7648,-5.7646,0,0,-5.6672,-5.6832,-5.6869,-5.6935,-5.706,-5.7162,-5.7302,-5.7435,-5.7507,-5.7607,-5.7727,-5.7903,-5.7873,-5.7949,-5.7967,-5.8062,-5.8235,-5.8017,-5.802,-5.8057,-5.8465,-5.8493,-5.8527,-5.8227,-5.8233,-5.8237,-5.8457,0,-5.6874,-5.7124,-5.7158,-5.7379,-5.7502,-5.7497,-5.762,-5.771,-5.7758,-5.7869,-5.7921,-5.8046,-5.7995,-5.8041,-5.8135,-5.8194,-5.8318,-5.8178,-5.8341,-5.8346,-5.8317,-5.8565,-5.8594,-5.8797,-5.8486,-5.8491,-5.8494,0,-5.7143,-5.7253,-5.7488,-5.7599,-5.7652,-5.7762,-5.7888,-5.7994,-5.8097,-5.8125,-5.8211,-5.8219,-5.8365,-5.8282,-5.8486,-5.8391,-5.8459,-5.8498,-5.8507,-5.8525,-5.8432,-5.8593,-5.8863,-5.8894,-5.854,-5.8536,-5.8533,0,-5.7285,-5.7491,-5.766,-5.7715,-5.7849,-5.7927,-5.7986,-5.8084,-5.8163,-5.8272,-5.8324,-5.8449,-5.8518,-5.8615,-5.8656,-5.8592,-5.8859,-5.8778,-5.8888,-5.8887,-5.8946,-5.8943,-5.9234,-5.8985,-5.8985,-5.8984,-5.8983,0,-5.7509,-5.7653,-5.7726,-5.7829,-5.7992,-5.8029,-5.8188,-5.8244,-5.8332,-5.8447,-5.8449,-5.8557,-5.8604,-5.872,-5.8753,-5.8919,-5.8948,-5.8976,-5.8984,-5.8979,-5.8976,-5.9026,-5.9014,-5.8992,-5.899,-5.8989,-5.8987,0,-5.7696,-5.7749,-5.7933,-5.8045,-5.8077,-5.8192,-5.8288,-5.8389,-5.8435,-5.8582,-5.8618,-5.8692,-5.8828,-5.8879,-5.9044,-5.9066,-5.9259,-5.9253,-5.9225,-5.9228,-5.9336,-5.9327,-5.9672,-5.9721,-5.9437,-5.9439,-5.9442,0,-5.7836,-5.7948,-5.8073,-5.8151,-5.8213,-5.8338,-5.8419,-5.846,-5.8544,-5.8672,-5.8758,-5.8894,-5.9006,-5.9224,-5.9293,-5.942,-5.942,-5.9532,-5.9439,-5.9431,-5.9426,-5.942,-5.9433,-5.955,-5.9553,-5.9555,-5.9557,0,-5.8081,-5.8103,-5.8221,-5.8349,-5.8446,-5.8549,-5.8648,-5.8711,-5.8767,-5.8862,-5.9003,-5.909,-5.926,-5.9397,-5.9528,-5.9588,-5.9584,-5.9586,-5.9619,-5.9615,-5.9596,-5.9612,-5.9276,-5.9578,-5.9576,-5.9574,-5.9573,-5.9572,-5.8252,-5.8352,-5.8457,-5.8589,-5.8668,-5.8762,-5.8863,-5.8924,-5.9042,-5.9185,-5.9202,-5.9354,-5.9456,-5.9632,-5.9699,-5.9819,-5.9789,-5.9835,-5.9848,-5.9859,-5.9869,-5.9574,-5.9842,-5.9842,-5.9841,-5.9841,-5.9841,0,-5.85,-5.8568,-5.8688,-5.8829,-5.8933,-5.8919,-5.9029,-5.9118,-5.9252,-5.9348,-5.9459,-5.9622,-5.9754,-5.9834,-5.9967,-6.0048,-6.005,-6.0082,-6.0078,-6.0093,-5.9887,-5.9847,-6.0079,-6.0079,-6.0079,-6.0079,-6.0079,-6.0079,-5.8642,-5.8812,-5.8847,-5.9058,-5.9124,-5.9274,-5.9339,-5.9426,-5.9503,-5.9686,-5.9797,-5.9848,-5.9939,-6.0079,-6.0201,-6.0221,-6.0271,-6.0308,-6.0325,-6.0132,-6.0107,-6.0084,-6.0047,-6.0317,-6.0318,-6.0522,-6.0524,-6.0526]}]]